Tracking 20040 objects as of 19-Nov-2019
Live streaming from Space Station
objects crossing your sky now

SAKURA 2B (CS-2B)

Track SAKURA 2B (CS-2B) now!
SAKURA 2B (CS-2B) is classified as:


NORAD ID: 14248
Int'l Code: 1983-081A
Perigee: 36,180.6 km
Apogee: 36,235.0 km
Inclination: 14.5 °
Period: 1,457.3 minutes
Semi major axis: 42578 km
RCS: 8.9693 m2 (large)
Launch date: August 5, 1983
Source: Japan (JPN)
Launch site: TANEGASHIMA SPACE CENTER (TNSTA)
aabbcc
Your satellite tracking list
Your tracking list is empty




NASA's NSSDC Master Catalog

Two Line Element Set (TLE):
1 14248U 83081A   19321.45151745 -.00000199 +00000-0 +00000-0 0  9997
2 14248 014.4757 343.5358 0006387 346.2476 011.4124 00.98812640099926
Source of the keplerian elements: AFSPC